• In Hungary
  • List of Countries
  • For 7 days
  • Water Temperature
  • Satellite Maps
  • Weather Map
  • News
  • Weather Widgets
  • user-avatar
    Login

    Hourly Weather Novozlatopіl (Proletars'ke)

    Today, 23 October, Tuesday

    Time Temperature Precipitation Wind Pressure Humidity
    00:00 +10°C° 0 mm 3 mps 747 mmHg 89%
    01:00 +9°C° 0 mm 3 mps 746 mmHg 89%
    02:00 +9°C° 0 mm 3 mps 746 mmHg 88%
    03:00 +8°C° 0 mm 3 mps 746 mmHg 89%
    04:00 +8°C° 0 mm 3 mps 746 mmHg 89%
    05:00 +7°C° 0 mm 3 mps 746 mmHg 89%
    06:00 +8°C° 0 mm 3 mps 746 mmHg 84%
    07:00 +8°C° 0 mm 3 mps 746 mmHg 80%
    08:00 +8°C° 0 mm 4 mps 746 mmHg 73%
    09:00 +11°C° 0 mm 4 mps 746 mmHg 64%
    10:00 +12°C° 0 mm 4 mps 746 mmHg 55%
    11:00 +13°C° 0 mm 4 mps 746 mmHg 46%
    12:00 +14°C° 0 mm 4 mps 745 mmHg 45%
    13:00 +14°C° 0 mm 5 mps 745 mmHg 43%
    14:00 +14°C° 0 mm 5 mps 744 mmHg 43%
    15:00 +13°C° 0 mm 4 mps 744 mmHg 46%
    16:00 +12°C° 0 mm 4 mps 744 mmHg 50%
    17:00 +11°C° 0 mm 3 mps 743 mmHg 54%
    18:00 +11°C° 0 mm 3 mps 743 mmHg 57%
    19:00 +10°C° 0 mm 3 mps 743 mmHg 59%
    20:00 +10°C° 0 mm 4 mps 742 mmHg 62%
    21:00 +10°C° 0 mm 4 mps 742 mmHg 61%
    22:00 +8°C° 0 mm 4 mps 741 mmHg 61%
    23:00 +8°C° 0 mm 4 mps 741 mmHg 61%

    Tomorrow, 24 October, Wednesday

    Time Temperature Precipitation Wind Pressure Humidity
    00:00 +8°C° 0 mm 4 mps 740 mmHg 62%
    01:00 +7°C° 0 mm 4 mps 740 mmHg 63%
    02:00 +7°C° 0 mm 4 mps 739 mmHg 63%
    03:00 +8°C° 0 mm 4 mps 738 mmHg 66%
    04:00 +8°C° 0 mm 5 mps 737 mmHg 68%
    05:00 +8°C° 0 mm 6 mps 736 mmHg 71%
    06:00 +9°C° 0.1 mm 7 mps 735 mmHg 71%
    07:00 +10°C° 0.1 mm 8 mps 734 mmHg 71%
    08:00 +11°C° 0.1 mm 9 mps 734 mmHg 70%
    09:00 +11°C° 0.5 mm 10 mps 733 mmHg 70%
    10:00 +12°C° 0.5 mm 10 mps 732 mmHg 69%
    11:00 +12°C° 0.5 mm 11 mps 731 mmHg 68%
    12:00 +12°C° 0.6 mm 10 mps 731 mmHg 68%
    13:00 +12°C° 0.6 mm 9 mps 730 mmHg 68%
    14:00 +12°C° 0.6 mm 9 mps 729 mmHg 68%
    15:00 +12°C° 0.1 mm 8 mps 729 mmHg 69%
    16:00 +11°C° 0.1 mm 7 mps 728 mmHg 71%
    17:00 +11°C° 0.1 mm 6 mps 728 mmHg 72%
    18:00 +10°C° 0.3 mm 6 mps 728 mmHg 76%
    19:00 +10°C° 0.3 mm 6 mps 728 mmHg 79%
    20:00 +10°C° 0.3 mm 5 mps 727 mmHg 83%
    21:00 +9°C° 0.4 mm 5 mps 727 mmHg 83%
    22:00 +10°C° 0.4 mm 4 mps 727 mmHg 83%
    23:00 +10°C° 0.4 mm 3 mps 727 mmHg 83%

    Day after tomorrow, 25 October, Thursday

    Time Temperature Precipitation Wind Pressure Humidity
    00:00 +8°C° 0.8 mm 4 mps 727 mmHg 83%
    01:00 +7°C° 0.8 mm 5 mps 727 mmHg 83%
    02:00 +7°C° 0.8 mm 5 mps 727 mmHg 83%
    03:00 +6°C° 0.1 mm 5 mps 727 mmHg 81%
    04:00 +6°C° 0.1 mm 5 mps 728 mmHg 80%
    05:00 +6°C° 0.1 mm 5 mps 728 mmHg 78%
    06:00 +6°C° 0 mm 5 mps 729 mmHg 76%
    07:00 +4°C° 0 mm 6 mps 730 mmHg 74%
    08:00 +4°C° 0 mm 6 mps 731 mmHg 72%
    09:00 +5°C° 0 mm 6 mps 731 mmHg 67%
    10:00 +7°C° 0 mm 6 mps 731 mmHg 63%
    11:00 +7°C° 0 mm 6 mps 732 mmHg 58%
    12:00 +7°C° 0 mm 6 mps 732 mmHg 59%
    13:00 +7°C° 0 mm 6 mps 732 mmHg 60%
    14:00 +8°C° 0 mm 6 mps 732 mmHg 61%
    15:00 +7°C° 0 mm 5 mps 733 mmHg 63%
    16:00 +7°C° 0 mm 5 mps 733 mmHg 65%
    17:00 +6°C° 0 mm 4 mps 734 mmHg 66%
    18:00 +6°C° 0 mm 4 mps 734 mmHg 69%
    19:00 +6°C° 0 mm 5 mps 735 mmHg 72%
    20:00 +5°C° 0 mm 5 mps 736 mmHg 75%
    21:00 +5°C° 0 mm 5 mps 736 mmHg 74%
    22:00 +5°C° 0 mm 4 mps 736 mmHg 74%
    23:00 +4°C° 0 mm 4 mps 737 mmHg 74%

    26 October, Friday

    Time Temperature Precipitation Wind Pressure Humidity
    00:00 +4°C° 0 mm 4 mps 737 mmHg 73%
    01:00 +4°C° 0 mm 4 mps 737 mmHg 72%
    02:00 +3°C° 0 mm 4 mps 737 mmHg 72%
    03:00 +3°C° 0 mm 4 mps 737 mmHg 71%
    04:00 +3°C° 0 mm 4 mps 737 mmHg 71%
    05:00 +3°C° 0 mm 4 mps 737 mmHg 70%
    06:00 +3°C° 0.4 mm 4 mps 737 mmHg 72%
    07:00 +4°C° 0.4 mm 4 mps 736 mmHg 73%
    08:00 +5°C° 0.4 mm 4 mps 736 mmHg 74%
    09:00 +5°C° 0.5 mm 4 mps 736 mmHg 75%
    10:00 +6°C° 0.5 mm 5 mps 736 mmHg 75%
    11:00 +7°C° 0.5 mm 5 mps 736 mmHg 75%
    12:00 +7°C° 0.1 mm 6 mps 737 mmHg 72%
    13:00 +6°C° 0.1 mm 7 mps 737 mmHg 68%
    14:00 +8°C° 0.1 mm 7 mps 738 mmHg 65%
    15:00 +6°C° 0 mm 7 mps 738 mmHg 66%
    16:00 +7°C° 0 mm 6 mps 739 mmHg 67%
    17:00 +7°C° 0 mm 6 mps 740 mmHg 67%
    18:00 +6°C° 0 mm 5 mps 741 mmHg 68%
    19:00 +6°C° 0 mm 5 mps 742 mmHg 69%
    20:00 +6°C° 0 mm 5 mps 743 mmHg 71%
    21:00 +5°C° 0 mm 4 mps 744 mmHg 73%
    22:00 +5°C° 0 mm 4 mps 744 mmHg 75%
    23:00 +4°C° 0 mm 3 mps 745 mmHg 77%

    27 October, Saturday

    Time Temperature Precipitation Wind Pressure Humidity
    00:00 +4°C° 0 mm 3 mps 745 mmHg 77%
    01:00 +4°C° 0 mm 3 mps 745 mmHg 78%
    02:00 +4°C° 0 mm 3 mps 746 mmHg 78%
    03:00 +4°C° 0 mm 3 mps 746 mmHg 79%
    04:00 +4°C° 0 mm 3 mps 746 mmHg 79%
    05:00 +4°C° 0 mm 3 mps 746 mmHg 80%
    06:00 +5°C° 0 mm 4 mps 746 mmHg 75%
    07:00 +6°C° 0 mm 4 mps 746 mmHg 71%
    08:00 +7°C° 0 mm 5 mps 747 mmHg 66%
    09:00 +9°C° 0 mm 5 mps 746 mmHg 66%
    10:00 +10°C° 0 mm 6 mps 746 mmHg 66%
    11:00 +11°C° 0 mm 7 mps 746 mmHg 67%
    12:00 +12°C° 0 mm 7 mps 745 mmHg 65%
    13:00 +14°C° 0 mm 7 mps 745 mmHg 63%
    14:00 +16°C° 0 mm 8 mps 745 mmHg 62%
    15:00 +15°C° 0 mm 7 mps 744 mmHg 65%
    16:00 +14°C° 0 mm 7 mps 744 mmHg 68%
    17:00 +14°C° 0 mm 6 mps 744 mmHg 72%
    18:00 +14°C° 0 mm 6 mps 744 mmHg 73%
    19:00 +12°C° 0 mm 7 mps 745 mmHg 75%
    20:00 +12°C° 0 mm 7 mps 745 mmHg 77%
    21:00 +12°C° 0 mm 7 mps 745 mmHg 78%
    22:00 +12°C° 0 mm 7 mps 745 mmHg 80%
    23:00 +13°C° 0 mm 6 mps 745 mmHg 81%

    28 October, Sunday

    Time Temperature Precipitation Wind Pressure Humidity
    00:00 +11°C° 0 mm 6 mps 746 mmHg 82%
    01:00 +12°C° 0 mm 5 mps 746 mmHg 83%
    02:00 +12°C° 0 mm 5 mps 746 mmHg 84%
    03:00 +12°C° 0 mm 5 mps 746 mmHg 85%
    04:00 +11°C° 0 mm 4 mps 747 mmHg 85%
    05:00 +11°C° 0 mm 4 mps 747 mmHg 86%
    06:00 +12°C° 0 mm 4 mps 747 mmHg 83%
    07:00 +13°C° 0 mm 4 mps 748 mmHg 80%
    08:00 +13°C° 0 mm 4 mps 748 mmHg 77%
    09:00 +15°C° 0 mm 4 mps 748 mmHg 72%
    10:00 +17°C° 0 mm 4 mps 749 mmHg 67%
    11:00 +19°C° 0 mm 4 mps 749 mmHg 62%
    12:00 +19°C° 0 mm 5 mps 749 mmHg 60%
    13:00 +20°C° 0 mm 5 mps 749 mmHg 58%
    14:00 +21°C° 0 mm 5 mps 749 mmHg 56%
    15:00 +19°C° 0 mm 4 mps 749 mmHg 61%
    16:00 +18°C° 0 mm 4 mps 749 mmHg 66%
    17:00 +17°C° 0 mm 3 mps 749 mmHg 72%
    18:00 +16°C° 0 mm 3 mps 749 mmHg 73%
    19:00 +16°C° 0 mm 3 mps 750 mmHg 75%
    20:00 +14°C° 0 mm 4 mps 750 mmHg 76%
    21:00 +14°C° 0 mm 3 mps 750 mmHg 77%
    22:00 +14°C° 0 mm 3 mps 750 mmHg 78%
    23:00 +13°C° 0 mm 3 mps 750 mmHg 80%

    29 October, Monday

    Time Temperature Precipitation Wind Pressure Humidity
    00:00 +13°C° 0 mm 3 mps 750 mmHg 82%
    01:00 +13°C° 0 mm 3 mps 750 mmHg 84%
    02:00 +12°C° 0 mm 3 mps 750 mmHg 86%
    03:00 +12°C° 0 mm 3 mps 750 mmHg 86%
    04:00 +12°C° 0 mm 3 mps 750 mmHg 86%
    05:00 +12°C° 0 mm 3 mps 750 mmHg 86%
    06:00 +13°C° 0 mm 3 mps 750 mmHg 82%
    07:00 +13°C° 0 mm 4 mps 750 mmHg 77%
    08:00 +14°C° 0 mm 4 mps 750 mmHg 72%
    09:00 +16°C° 0 mm 5 mps 750 mmHg 65%
    10:00 +19°C° 0 mm 5 mps 750 mmHg 58%
    11:00 +20°C° 0 mm 5 mps 750 mmHg 50%
    12:00 +21°C° 0 mm 5 mps 750 mmHg 50%
    13:00 +21°C° 0 mm 6 mps 749 mmHg 49%
    14:00 +21°C° 0 mm 6 mps 749 mmHg 48%
    15:00 +19°C° 0 mm 5 mps 749 mmHg 54%
    16:00 +17°C° 0 mm 5 mps 749 mmHg 61%
    17:00 +15°C° 0 mm 4 mps 748 mmHg 68%
    18:00 +15°C° 0 mm 4 mps 748 mmHg 69%
    19:00 +14°C° 0 mm 4 mps 748 mmHg 69%
    20:00 +14°C° 0 mm 5 mps 748 mmHg 70%
    21:00 +14°C° 0 mm 5 mps 748 mmHg 71%
    22:00 +14°C° 0 mm 4 mps 748 mmHg 73%
    23:00 +13°C° 0 mm 4 mps 748 mmHg 74%
    Show more